Location: Indian Hills
(32.9760°N, 85.9450°W)
Time: 07:20:53
(UTC+00:00)

Cosmos 676 Rocket - Pass Details

Date: 09 December 2019
Orbit: 754 x 785 km, 74.0° (Epoch: 26 January)

Event Time Altitude Azimuth Distance (km) Brightness Sun altitude
Rises 00:50:36 0° 202° (SSW) 3,194 7.6 -27.3°
Reaches altitude 10° 00:52:59 10° 205° (SSW) 2,270 6.8 -27.8°
Maximum altitude 00:58:05 67° 288° (WNW) 817 4.2 -28.8°
Enters shadow 00:58:06 67° 289° (WNW) 817 4.2 -28.8°
